Location: Nemiskam
(49.4820°N, 111.2775°W)
Time: 09:29:18
(UTC+00:00)

Envisat - Pass Details

Date: 04 December 2022
Orbit: 763 x 765 km, 98.2° (Epoch: 28 January)

Event Time Altitude Azimuth Distance (km) Brightness Sun altitude
Rises 13:41:47 0° 0° (N) 3,246 6.1 -12.6°
Reaches altitude 10° 13:45:15 10° 336° (NNW) 2,315 5.1 -12.1°
Enters shadow 13:47:03 13° 315° (NW) 2,086 4.7 -11.8°
